Terminal Aerodrome Forecast
Issued by NWS Blacksburg, VA

Current Version | Previous Version | Graphics & Text | Print | Product List | Glossary On
Versions: 1 2 3 4 5 6 7 8 9 10 11 12 13 14 15 16 17 18 19 20 21 22 23 24 25 26 27 28 29 30 31 32 33 34 35 36
000
FTUS41 KRNK 020201 AAA
TAFBLF
TAF AMD
KBLF 020201Z 0202/0224 00000KT 2SM TSRA BR BKN008 OVC025CB
     FM020400 25005KT P6SM VCTS SCT025 BKN035CB
     FM020900 25006KT P6SM -SHRA OVC015
     FM021500 26008KT P6SM BKN035
     FM022100 25010KT 5SM -SHRA VCTS OVC040CB=

USA.gov is the U.S. government's official web portal to all federal, state and local government web resources and services.